Location: Goettingen
(51.5300°N, 9.9433°E)
Time: 06:00:56
(UTC+01:00)

ISS - Pass Details

Date: 02 December 2021
Orbit: 417 x 422 km, 51.6° (Epoch: 04 December)

Event Time Altitude Azimuth Distance (km) Brightness Sun altitude
Rises 19:32:13 0° 283° (WNW) 2,379 1.2 -29.8°
Reaches altitude 10° 19:34:33 10° 270° (W) 1,511 0.0 -30.2°
Enters shadow 19:35:20 15° 261° (W) 1,258 -0.6 -30.3°
